Location: Chircca
(13.7944°S, 72.0608°W)
Time: 05:57:48
(UTC+00:00)

Delta 202 - Pass Details

Date: 14 July 2020
Orbit: 781 x 2713 km, 18.5° (Epoch: 14 August)

Event Time Altitude Azimuth Distance (km) Brightness Sun altitude
Rises 00:50:07 0° 257° (WSW) 3,294 7.6 -31.7°
Reaches altitude 10° 00:52:23 10° 257° (WSW) 2,429 6.7 -32.2°
Enters shadow 00:56:42 58° 258° (WSW) 1,076 4.3 -33.2°
